Weather History for Rexburg, ID

Change the Weather History Date:

Sunday, December 8, 2013

  Actual Average Record
Temperature  
Mean Temperature -6 °F 22 °F  
Max Temperature 3 °F 30 °F 46 °F (2006)
Min Temperature -16 °F 13 °F -16 °F (2013)
Degree Days  
Heating Degree Days 71 44  
Month to date heating degree days 440 340  
Since 1 July heating degree days 2203 2352  
Cooling Degree Days 0 0  
Month to date cooling degree days 0 0  
Year to date cooling degree days 452 208  
Moisture  
Dew Point -5 °F    
Average Humidity 78    
Maximum Humidity 87    
Minimum Humidity 69    
Precipitation  
Precipitation T in 0.02 in 0.09 in (2008)
Month to date precipitation 0.42 0.20  
Year to date precipitation 8.08 12.23  
Sea Level Pressure  
Sea Level Pressure 30.16 in    
Wind  
Wind Speed 8 mph (SSW)    
Max Wind Speed 16 mph    
Max Gust Speed 22 mph    
Visibility 5 miles    
Events Snow    
T = Trace of Precipitation, MM = Missing Value Source: NWS Daily Summary

Daily Weather History Graph

Daily Weather History Graph

Search for Another Location

Airport:

Trip Planner

Search our weather history database for the weather conditions in past years. The results will help you decide how hot, cold, wet, or windy it might be!

Date:

Astronomy

Dec. 08, 2013 Rise Set
Actual Time 7:48 AM MST 4:49 PM MST
Civil Twilight 7:16 AM MST 5:22 PM MST
Nautical Twilight 6:39 AM MST 5:58 PM MST
Astronomical Twilight 6:05 AM MST 6:33 PM MST
Moon 12:01 PM MST (12/8) 11:53 PM MST (12/8)
Length of Visible Light 10h 06m
Length of Day
9h 00m
Waxing Crescent, 40% of the Moon is Illuminated
Dec 8
Waxing Crescent
Dec 9
First Quarter
Dec 17
Full
Dec 25
Last Quarter
Jan 1
New

Hourly Weather History & Observations

Time (MST) Temp. Windchill Dew Point Humidity Pressure Visibility Wind Dir Wind Speed Gust Speed Precip Events Conditions
12:53 AM 1.0 °F -12.9 °F -7.1 °F 69% 30.09 in 10.0 mi SSW 8.1 mph - N/A   Overcast
1:53 AM -0.0 °F -13.0 °F -7.1 °F 72% 30.10 in 10.0 mi SSW 6.9 mph - N/A   Partly Cloudy
2:24 AM 1.0 °F -14.9 °F -4.0 °F 79% 29.88 in 10.0 mi SSW 10.4 mph - N/A   Mostly Cloudy
2:32 AM -0.0 °F -13.0 °F -5.1 °F 79% 29.89 in 10.0 mi SSW 6.9 mph - N/A   Scattered Clouds
2:53 AM -0.0 °F -14.2 °F -5.1 °F 79% 30.13 in 10.0 mi South 8.1 mph - N/A   Scattered Clouds
3:53 AM 1.0 °F -15.8 °F -2.9 °F 83% 30.13 in 10.0 mi SSW 11.5 mph - N/A   Clear
4:53 AM -0.9 °F -16.4 °F -5.1 °F 83% 30.17 in 9.0 mi SSW 9.2 mph - N/A   Scattered Clouds
5:53 AM -0.9 °F -17.4 °F -5.1 °F 83% 30.19 in 7.0 mi South 10.4 mph - N/A   Mostly Cloudy
6:12 AM -0.0 °F -14.2 °F -4.0 °F 83% 29.96 in 7.0 mi South 8.1 mph - N/A   Overcast
6:53 AM -0.9 °F -16.4 °F -6.0 °F 79% 30.23 in 5.0 mi SSW 9.2 mph - N/A   Haze
7:13 AM -0.9 °F -15.3 °F -5.1 °F 83% 29.99 in 7.0 mi South 8.1 mph - N/A   Overcast
7:53 AM -0.0 °F -15.3 °F -4.0 °F 83% 30.25 in 3.0 mi South 9.2 mph - 0.00 in Snow Light Snow
7:58 AM -0.0 °F -15.3 °F -4.0 °F 83% 29.99 in 1.8 mi South 9.2 mph - 0.00 in Snow Light Snow
8:19 AM 1.0 °F -14.9 °F -4.0 °F 79% 29.99 in 3.0 mi SSW 10.4 mph - 0.00 in Snow Light Snow
8:31 AM 1.0 °F -16.6 °F -2.9 °F 83% 29.99 in 2.5 mi SSW 12.7 mph 21.9 mph 0.00 in Snow Light Snow
8:39 AM 1.0 °F -18.0 °F -4.0 °F 79% 30.00 in 4.0 mi SSW 15.0 mph - 0.00 in   Haze
8:53 AM -0.0 °F -17.1 °F -5.1 °F 79% 30.26 in 5.0 mi SW 11.5 mph - 0.00 in   Haze
9:53 AM 1.9 °F -15.5 °F -2.9 °F 80% 30.32 in 4.0 mi SSW 12.7 mph - N/A   Haze
10:19 AM 1.0 °F -16.6 °F -5.1 °F 75% 30.04 in 2.0 mi SSW 12.7 mph - 0.00 in Snow Light Snow
10:26 AM 1.9 °F -14.7 °F -4.0 °F 76% 30.04 in 1.5 mi SSW 11.5 mph - 0.00 in Snow Light Snow
10:45 AM 1.0 °F -14.9 °F -4.0 °F 79% 30.05 in 2.5 mi SSW 10.4 mph - 0.00 in Snow Light Snow
10:53 AM 1.9 °F -14.7 °F -4.0 °F 76% 30.32 in 2.0 mi SW 11.5 mph - 0.00 in Snow Light Snow
11:06 AM 1.9 °F -12.9 °F -2.9 °F 80% 30.05 in 5.0 mi SSW 9.2 mph - 0.00 in   Haze
11:53 AM 1.9 °F -14.7 °F -4.0 °F 76% 30.32 in 2.0 mi SW 11.5 mph - 0.00 in Snow Light Snow
12:04 PM 1.9 °F -16.2 °F -4.0 °F 76% 30.05 in 1.8 mi SW 13.8 mph - 0.00 in Snow Light Snow
12:17 PM 1.9 °F -12.9 °F -4.0 °F 76% 30.05 in 2.5 mi SW 9.2 mph - 0.00 in   Haze
12:32 PM 1.9 °F -15.5 °F -4.0 °F 76% 30.05 in 3.0 mi SW 12.7 mph 19.6 mph 0.00 in   Haze
12:46 PM 1.9 °F -15.5 °F -4.0 °F 76% 30.04 in 2.5 mi SW 12.7 mph - 0.00 in   Haze
12:53 PM 1.9 °F -13.8 °F -2.9 °F 80% 30.32 in 1.8 mi SSW 10.4 mph - 0.00 in Snow Light Snow
1:08 PM 1.9 °F -15.5 °F -2.9 °F 80% 30.03 in 2.5 mi SW 12.7 mph - 0.00 in   Haze
1:17 PM 1.9 °F -14.7 °F -2.9 °F 80% 30.03 in 3.0 mi SW 11.5 mph - 0.00 in   Haze
1:53 PM 1.9 °F -15.5 °F -4.0 °F 76% 30.32 in 10.0 mi SW 12.7 mph - 0.00 in   Overcast
2:53 PM 1.9 °F -13.8 °F -2.9 °F 80% 30.31 in 1.5 mi SW 10.4 mph - 0.00 in Snow Light Snow
3:35 PM 1.9 °F -13.8 °F -4.0 °F 76% 30.03 in 3.0 mi SW 10.4 mph - 0.00 in Snow Light Snow
3:53 PM 1.9 °F -11.8 °F -4.0 °F 76% 30.32 in 3.0 mi SW 8.1 mph - 0.00 in Snow Light Snow
4:01 PM 1.9 °F -11.8 °F -2.9 °F 80% 30.04 in 2.0 mi SW 8.1 mph - 0.00 in Snow Light Snow
4:11 PM 1.9 °F -11.8 °F -2.9 °F 80% 30.04 in 1.5 mi SW 8.1 mph - 0.00 in Snow Light Snow
4:53 PM 1.9 °F -7.6 °F -2.9 °F 80% 30.35 in 0.8 mi West 4.6 mph - 0.00 in Snow Light Snow
5:11 PM 1.9 °F -5.6 °F -2.9 °F 80% 30.06 in 1.5 mi WSW 3.5 mph - 0.00 in Snow Light Snow
5:23 PM 1.9 °F -5.6 °F -2.0 °F 83% 30.06 in 2.0 mi WSW 3.5 mph - 0.00 in Snow Light Snow
5:41 PM 1.9 °F -9.2 °F -2.9 °F 80% 30.07 in 4.0 mi SW 5.8 mph - 0.00 in Snow Light Snow
5:53 PM 1.9 °F -9.2 °F -2.9 °F 80% 30.37 in 1.8 mi SW 5.8 mph - 0.00 in Snow Light Snow
6:24 PM 1.0 °F -10.3 °F -2.9 °F 83% 30.09 in 2.5 mi SW 5.8 mph - 0.00 in Snow Light Snow
6:31 PM 1.0 °F -8.7 °F -2.9 °F 83% 30.10 in 7.0 mi SSW 4.6 mph - 0.00 in   Overcast
6:53 PM 1.0 °F -10.3 °F -2.9 °F 83% 30.40 in 6.0 mi SSW 5.8 mph - 0.00 in   Overcast
7:44 PM -0.9 °F -8.9 °F -4.0 °F 87% 30.13 in 6.0 mi South 3.5 mph - 0.00 in   Overcast
7:53 PM -0.9 °F -11.0 °F -5.1 °F 83% 30.43 in 4.0 mi South 4.6 mph - 0.00 in   Overcast
8:14 PM -2.9 °F -11.2 °F -7.1 °F 82% 30.13 in 9.0 mi SSW 3.5 mph - N/A   Scattered Clouds
8:53 PM -4.0 °F - -9.9 °F 76% 30.46 in 10.0 mi Calm Calm - N/A   Clear
9:53 PM -9.0 °F -18.2 °F -13.0 °F 83% 30.48 in 8.0 mi North 3.5 mph - N/A   Clear
10:44 PM -11.9 °F -21.5 °F -17.0 °F 78% 30.19 in 8.0 mi ENE 3.5 mph - N/A   Scattered Clouds
10:53 PM -13.0 °F -22.7 °F -17.0 °F 82% 30.54 in 10.0 mi East 3.5 mph - N/A   Scattered Clouds
11:53 PM -15.0 °F - -20.0 °F 78% 30.56 in 10.0 mi Calm Calm - N/A   Partly Cloudy